{"data":{"norad_id":64479,"intl_designator":"2025-133H","name":"STARLINK-34528","alt_names":[],"object_type":"PAYLOAD","status":"ACTIVE","operator":null,"country":"US","launch_date":"2025-06-23","launch_site_code":"AFETR","launch_vehicle":null,"mission":null,"orbit_class":"UNKNOWN","rcs_meters":null,"size_class":null,"mass_kg":null,"dimensions":null,"purposes":["comms"],"wikipedia_slug":null,"has_3d_model":false,"image_url":null,"decayed_at":null,"tle_current":{"epoch":"2026-09-20T06:26:13.688736Z","epoch_age_seconds":151721,"freshness":"FRESH","line1":"1 64479U 25133H   26263.26821399  .00010029  00000+0  30753-3 0  9995","line2":"2 64479  53.1580 287.0113 0001328 108.5461 251.5686 15.34401688 71040","mean_motion":15.34401688,"eccentricity":0.0001328,"inclination_deg":53.158,"raan_deg":287.0113,"arg_perigee_deg":108.5461,"mean_anomaly_deg":251.5686,"bstar":0.00030753,"rev_number":7104,"period_min":93.847654839128,"perigee_km":461.78976020234,"apogee_km":463.6066860376,"semimajor_km":6840.83522312,"source":"CELESTRAK","updated_at":"2026-09-21T09:00:35.359470Z"}}}